Location: Ottawa
(45.4170°N, 75.7000°W)
Time: 22:30:56
(UTC-04:00)

ISS - Pass Details

Date: 22 May 2021
Orbit: 417 x 422 km, 51.6° (Epoch: 13 June)

Event Time Altitude Azimuth Distance (km) Brightness Sun altitude
Rises 23:10:03 0° 297° (WNW) 2,368 0.9 -19.4°
Reaches altitude 10° 23:12:17 10° 306° (NW) 1,504 0.0 -19.6°
Maximum altitude 23:15:24 34° 14° (NNE) 707 -2.2 -19.9°
Enters shadow 23:17:02 22° 66° (ENE) 990 -1.9 -20.0°
